User: anonymous   Login
Location: Iesi
(43.5167°N, 13.2333°E)
Time: 01:09:15
(UTC+00:00)
Language:

Cosmos 1238 Rocket - Orbit

View from above orbital plane
View from above orbital plane
View from above satellite
View from above satellite

Ground track
Ground track

The orbit data is extracted from the following two-line orbital elements,

1 12139U 81003B   20292.90338980 +.00001223 +00000-0 +56280-4 0  9996
2 12139 082.9495 214.5699 0460984 194.6039 164.1472 14.57496437024443
Epoch (UTC): 18 October 2020 21:40:52
Eccentricity: 0.0460984
inclination: 82.9495°
perigee height: 375 km
apogee height: 1027 km
right ascension of ascending node: 214.5699°
argument of perigee: 194.6039°
revolutions per day: 14.57496437
mean anomaly at epoch: 164.1472°
orbit number at epoch: 2444

The dashed part of the orbit path shows where the satellite is in the earth's shadow,  

DLR